Home > Weather > St. George > Past weeks

Flag for USA Past Weather in St. George, Utah, USA — Yesterday and Last 2 Weeks

Now
63 °F

Clear.


Feels Like: 63 °F
Forecast: 59 / 86 °F
Wind: 3 mph from Southeast

Location: Saint George

Current Time: May 28, 2016 at 4:10:40 AM

Latest Report: May 28, 2016 at 3:35 AM


Visibility: 10 mi

Pressure: 29.88 "Hg (27.06 "Hg at 842m altitude)

Humidity: 25%

Dew Point: 27 °F

Location of St. GeorgeLocation

Past Weather in St. George — Graph

°F

St. George Temperature Yesterday

Maximum temperature yesterday: 82 °F (at 3:15 PM)
Minimum temperature yesterday: 55 °F (at 4:35 AM)
Average temperature yesterday: 70 °F

High & Low Weather Summary for the Past Weeks

 TemperatureHumidityPressure
High93 °F (May 13, 4:15 PM)59% (May 18, 5:55 AM)30.15 "Hg (May 18, 5:55 AM)
Low52 °F (May 22, 5:15 AM)10% (May 13, 5:55 PM)29.63 "Hg (May 20, 4:35 PM)
Average71 °F24%29.87 "Hg
* Reported May 13 2:15 AM — May 28 2:55 AM, St. George, Weather by CustomWeather, © 2016

Note: Actual official high and low records may vary slightly from our data, if they occured in-between our weather recording intervals... More about our weather records

Advertising

St. George Weather History for the Previous 24 Hours

Scroll right to see more
 ConditionsComfort  
Time TempWeatherWind HumidityBarometerVisibility
2:55 AM
Sat, May 28
64 °FClear.6 mph24%29.88 "Hg10 mi
2:35 AM66 °FClear.7 mph24%29.87 "Hg10 mi
2:15 AM66 °FClear.6 mph24%29.87 "Hg10 mi
1:55 AM66 °FClear.No wind26%29.87 "Hg10 mi
1:35 AM70 °FClear.No wind21%29.87 "Hg10 mi
1:15 AM66 °FClear.6 mph24%29.87 "Hg10 mi
12:55 AM70 °FClear.9 mph21%29.86 "Hg10 mi
12:35 AM70 °FClear.No wind23%29.86 "Hg10 mi
12:15 AM70 °FClear.5 mph25%29.86 "Hg10 mi
11:55 PM
Fri, May 27
72 °FClear.No wind22%29.86 "Hg10 mi
11:35 PM72 °FClear.3 mph22%29.86 "Hg10 mi
11:15 PM72 °FClear.5 mph22%29.86 "Hg10 mi
10:55 PM70 °FClear.5 mph21%29.85 "Hg10 mi
10:35 PM72 °FClear.7 mph20%29.85 "Hg10 mi
10:15 PM73 °FClear.No wind19%29.84 "Hg10 mi
9:55 PM75 °FClear.5 mph19%29.83 "Hg10 mi
9:35 PM77 °FSunny.5 mph18%29.83 "Hg10 mi
9:15 PM79 °FSunny.6 mph17%29.82 "Hg10 mi
8:55 PM79 °FSunny.7 mph17%29.82 "Hg10 mi
8:35 PM81 °FSunny.8 mph16%29.82 "Hg10 mi
8:15 PM81 °FSunny.8 mph16%29.81 "Hg10 mi
7:55 PM82 °FSunny.10 mph15%29.81 "Hg10 mi
7:35 PM82 °FSunny.7 mph16%29.80 "Hg10 mi
7:15 PM82 °FSunny.6 mph16%29.80 "Hg10 mi
6:55 PM82 °FSunny.13 mph16%29.80 "Hg10 mi
6:35 PM82 °FSunny.9 mph17%29.80 "Hg10 mi
6:15 PM82 °FSunny.5 mph16%29.81 "Hg10 mi
5:55 PM82 °FSunny.9 mph17%29.82 "Hg10 mi
5:35 PM82 °FSunny.9 mph17%29.82 "Hg10 mi
5:15 PM82 °FSunny.12 mph17%29.83 "Hg10 mi
4:55 PM82 °FSunny.12 mph19%29.83 "Hg10 mi
4:35 PM82 °FSunny.6 mph19%29.83 "Hg10 mi
4:15 PM82 °FSunny.14 mph19%29.84 "Hg10 mi
3:55 PM82 °FSunny.No wind19%29.85 "Hg10 mi
3:35 PM82 °FSunny.8 mph19%29.85 "Hg10 mi
3:15 PM82 °FPassing clouds.10 mph19%29.86 "Hg10 mi
2:55 PM81 °FPassing clouds.16 mph20%29.87 "Hg10 mi
2:35 PM81 °FSunny.5 mph18%29.87 "Hg10 mi
2:15 PM81 °FSunny.9 mph18%29.88 "Hg10 mi
1:55 PM79 °FSunny.No wind20%29.89 "Hg10 mi
1:35 PM79 °FSunny.9 mph21%29.90 "Hg10 mi
1:15 PM79 °FSunny.9 mph21%29.90 "Hg10 mi
12:55 PM77 °FSunny.9 mph24%29.91 "Hg10 mi
12:35 PM75 °FSunny.6 mph25%29.92 "Hg10 mi
12:15 PM73 °FSunny.No wind27%29.93 "Hg10 mi
11:55 AM73 °FSunny.No wind27%29.94 "Hg10 mi
11:35 AM72 °FSunny.3 mph29%29.94 "Hg10 mi
11:15 AM72 °FSunny.No wind29%29.95 "Hg10 mi
10:55 AM68 °FSunny.3 mph33%29.95 "Hg10 mi
10:35 AM66 °FSunny.5 mph35%29.96 "Hg10 mi
10:15 AM66 °FSunny.No wind35%29.97 "Hg10 mi
9:55 AM64 °FSunny.No wind34%29.98 "Hg10 mi
9:35 AM63 °FSunny.3 mph37%29.99 "Hg10 mi
9:15 AM64 °FSunny.6 mph34%29.99 "Hg10 mi
8:55 AM63 °FSunny.5 mph34%29.99 "Hg10 mi
8:35 AM63 °FSunny.7 mph37%29.99 "Hg10 mi
8:15 AM61 °FPassing clouds.8 mph36%29.99 "Hg10 mi
7:55 AM59 °FSunny.3 mph39%29.98 "Hg10 mi
7:35 AM57 °FSunny.3 mph41%29.97 "Hg10 mi
7:15 AM55 °FClear.3 mph44%29.97 "Hg10 mi
6:55 AM55 °FClear.5 mph44%29.96 "Hg10 mi
6:35 AM55 °FClear.5 mph44%29.96 "Hg10 mi
6:15 AM55 °FClear.No wind44%29.95 "Hg10 mi
5:55 AM55 °FClear.6 mph44%29.94 "Hg10 mi
5:35 AM57 °FPassing clouds.6 mph41%29.94 "Hg10 mi
5:15 AM57 °FPassing clouds.3 mph41%29.94 "Hg10 mi
4:55 AM55 °FClear.5 mph44%29.94 "Hg10 mi
4:35 AM55 °FClear.3 mph44%29.94 "Hg10 mi
4:15 AM57 °FClear.5 mph44%29.94 "Hg10 mi
Weather by CustomWeather, © 2016

See weather overviewHow to use our weather pages